This is the latest recevied weather packets stored in our database for station/object 9W3FAB-1. If no packets are shown the sender has not sent any weather packets the latest 10 day(s).
| Time | Temp. | Humidity | Pressure | Rain* | Wind** | Luminosity | Snow |
|---|---|---|---|---|---|---|---|
| 1777783605 | 30.56° C | 100% | 1007.7 hPa | - | - | - | - |
| 1777782704 | 30° C | 100% | 1007.9 hPa | - | - | - | - |
| 1777781803 | 30° C | 100% | 1008.2 hPa | - | - | - | - |
| 1777780902 | 30° C | 100% | 1008.4 hPa | - | - | - | - |
| 1777780001 | 30° C | 100% | 1008.6 hPa | - | - | - | - |
| 1777779100 | 30° C | 100% | 1008.7 hPa | - | - | - | - |
| 1777778199 | 29.44° C | 100% | 1008.8 hPa | - | - | - | - |
| 1777777298 | 28.89° C | 100% | 1008.9 hPa | - | - | - | - |
| 1777776397 | 28.89° C | 100% | 1009 hPa | - | - | - | - |
| 1777775497 | 28.33° C | 100% | 1009.2 hPa | - | - | - | - |
| 1777774596 | 28.89° C | 100% | 1009.3 hPa | - | - | - | - |
| 1777773695 | 28.33° C | 100% | 1009.5 hPa | - | - | - | - |
| 1777772794 | 28.33° C | 100% | 1009.6 hPa | - | - | - | - |
| 1777771893 | 27.78° C | 100% | 1009.5 hPa | - | - | - | - |
| 1777770992 | 27.78° C | 100% | 1009.5 hPa | - | - | - | - |
| 1777770085 | 27.22° C | 100% | 1009.5 hPa | - | - | - | - |
| 1777769184 | 27.22° C | 100% | 1009.5 hPa | - | - | - | - |
| 1777768284 | 27.22° C | 100% | 1009.4 hPa | - | - | - | - |
| 1777767383 | 26.67° C | 100% | 1009.2 hPa | - | - | - | - |
| 1777766545 | 26.67° C | 100% | 1008.9 hPa | - | - | - | - |
| 1777766482 | 26.67° C | 100% | 1008.9 hPa | - | - | - | - |
| 1777765665 | 26.11° C | 100% | 1008.8 hPa | - | - | - | - |
| 1777764764 | 26.11° C | 100% | 1008.4 hPa | - | - | - | - |
| 1777763863 | 26.67° C | 100% | 1008.2 hPa | - | - | - | - |
| 1777762962 | 26.67° C | 100% | 1007.9 hPa | - | - | - | - |
* Rain since midnight (hover to see other rain measurements)
** Current wind speed in m/s (hover to see current wind gust speed)